Radioactive Concentration measured by Seawater Radiation Monitor near Fukushima Daiichi Nuclear Power Station
Date,Time,Cs137(Bq/L),Cs134(Bq/L),Total β(Bq/L)
2016/11/06,00:00,0.55,0.072,ND
2016/11/06,00:10,0.56,0.062,8.8
2016/11/06,00:20,0.53,0.061,9.3
2016/11/06,00:30,0.57,0.050,ND
2016/11/06,00:40,0.57,0.054,ND
2016/11/06,00:50,0.49,0.059,9.9
2016/11/06,01:00,0.46,0.059,ND
2016/11/06,01:10,0.53,0.053,ND
2016/11/06,01:20,0.52,0.052,ND
2016/11/06,01:30,0.54,0.051,ND
2016/11/06,01:40,0.52,0.056,ND
2016/11/06,01:50,0.52,0.061,ND
2016/11/06,02:00,0.53,0.065,ND
2016/11/06,02:10,0.52,0.077,ND
2016/11/06,02:20,0.51,0.085,ND
2016/11/06,02:30,0.52,0.083,ND
2016/11/06,02:40,0.46,0.096,ND
2016/11/06,02:50,0.55,0.079,ND
2016/11/06,03:00,0.58,0.073,ND
2016/11/06,03:10,0.58,0.067,ND
2016/11/06,03:20,0.58,0.067,ND
2016/11/06,03:30,0.59,0.064,ND
2016/11/06,03:40,0.61,0.063,ND
2016/11/06,03:50,0.61,0.063,ND
2016/11/06,04:00,0.60,0.066,ND
2016/11/06,04:10,0.61,0.072,8.9
2016/11/06,04:20,0.60,0.072,ND
2016/11/06,04:30,0.61,0.077,9.0
2016/11/06,04:40,0.61,0.073,ND
2016/11/06,04:50,0.59,0.078,ND
2016/11/06,05:00,0.61,0.069,ND
2016/11/06,05:10,0.60,0.062,ND
2016/11/06,05:20,0.62,0.055,ND
2016/11/06,05:30,0.60,0.054,ND
2016/11/06,05:40,0.62,0.055,ND
2016/11/06,05:50,0.64,0.050,ND
2016/11/06,06:00,0.63,0.061,ND
2016/11/06,06:10,0.62,0.070,10
2016/11/06,06:20,0.62,0.066,8.9
2016/11/06,06:30,0.64,0.057,ND
2016/11/06,06:40,0.63,0.049,ND
2016/11/06,06:50,0.62,0.057,ND
2016/11/06,07:00,0.62,0.055,ND
2016/11/06,07:10,0.63,0.048,ND
2016/11/06,07:20,0.59,0.064,ND
2016/11/06,07:30,0.59,0.070,ND
2016/11/06,07:40,0.57,0.082,9.9
2016/11/06,07:50,0.49,0.081,10
2016/11/06,08:00,0.55,0.068,11
2016/11/06,08:10,0.55,0.068,12
2016/11/06,08:20,0.57,0.058,10
2016/11/06,08:30,0.58,0.058,ND
2016/11/06,08:40,0.59,0.053,ND
2016/11/06,08:50,0.61,0.044,ND
2016/11/06,09:00,0.62,0.051,ND
2016/11/06,09:10,0.63,0.054,ND
2016/11/06,09:20,0.65,0.060,ND
2016/11/06,09:30,0.67,0.059,ND
2016/11/06,09:40,0.68,0.053,ND
2016/11/06,09:50,0.69,0.057,ND
2016/11/06,10:00,0.70,0.062,ND
2016/11/06,10:10,0.71,0.062,ND
2016/11/06,10:20,0.67,0.069,9.3
2016/11/06,10:30,0.66,0.075,ND
2016/11/06,10:40,0.69,0.080,ND
2016/11/06,10:50,0.69,0.085,ND
2016/11/06,11:00,0.70,0.079,ND
2016/11/06,11:10,0.62,0.099,ND
2016/11/06,11:20,0.64,0.096,ND
2016/11/06,11:30,0.67,0.088,ND
2016/11/06,11:40,0.67,0.088,ND
2016/11/06,11:50,0.75,0.076,ND
2016/11/06,12:00,0.77,0.076,ND
2016/11/06,12:10,0.76,0.079,ND
2016/11/06,12:20,0.78,0.077,ND
2016/11/06,12:30,0.74,0.093,ND
2016/11/06,12:40,0.74,0.088,ND
2016/11/06,12:50,0.73,0.083,ND
2016/11/06,13:00,0.72,0.095,ND
2016/11/06,13:10,0.76,0.086,ND
2016/11/06,13:20,0.75,0.092,ND
2016/11/06,13:30,0.76,0.089,ND
2016/11/06,13:40,0.78,0.089,ND
2016/11/06,13:50,0.78,0.097,ND
2016/11/06,14:00,0.77,0.099,ND
2016/11/06,14:10,0.77,0.10,ND
2016/11/06,14:20,0.77,0.091,ND
2016/11/06,14:30,0.77,0.089,ND
2016/11/06,14:40,0.76,0.089,ND
2016/11/06,14:50,0.77,0.096,ND
2016/11/06,15:00,0.76,0.086,ND
2016/11/06,15:10,0.74,0.090,ND
2016/11/06,15:20,0.76,0.089,ND
2016/11/06,15:30,0.75,0.096,ND
2016/11/06,15:40,0.77,0.099,ND
2016/11/06,15:50,0.78,0.093,ND
2016/11/06,16:00,0.79,0.088,ND
2016/11/06,16:10,0.79,0.093,ND
2016/11/06,16:20,0.78,0.091,ND
2016/11/06,16:30,0.77,0.074,ND
2016/11/06,16:40,0.76,0.079,ND
2016/11/06,16:50,0.73,0.072,ND
2016/11/06,17:00,0.73,0.064,ND
2016/11/06,17:10,0.74,0.051,ND
2016/11/06,17:20,0.71,0.047,ND
2016/11/06,17:30,0.68,0.054,ND
2016/11/06,17:40,0.67,0.044,ND
2016/11/06,17:50,0.67,0.047,ND
2016/11/06,18:00,0.66,0.051,ND
2016/11/06,18:10,0.63,0.064,ND
2016/11/06,18:20,0.64,0.070,ND
2016/11/06,18:30,0.64,0.079,ND
2016/11/06,18:40,0.65,0.083,ND
2016/11/06,18:50,0.64,0.084,ND
2016/11/06,19:00,0.65,0.083,ND
2016/11/06,19:10,0.65,0.084,ND
2016/11/06,19:20,0.65,0.090,ND
2016/11/06,19:30,0.65,0.090,ND
2016/11/06,19:40,0.65,0.091,ND
2016/11/06,19:50,0.64,0.094,ND
2016/11/06,20:00,0.64,0.090,ND
2016/11/06,20:10,0.66,0.079,ND
2016/11/06,20:20,0.65,0.081,ND
2016/11/06,20:30,0.68,0.078,ND
2016/11/06,20:40,0.72,0.071,ND
2016/11/06,20:50,0.71,0.065,ND
2016/11/06,21:00,0.73,0.065,ND
2016/11/06,21:10,0.73,0.082,ND
2016/11/06,21:20,0.73,0.067,ND
2016/11/06,21:30,0.71,0.080,ND
2016/11/06,21:40,0.71,0.092,ND
2016/11/06,21:50,0.73,0.091,ND
2016/11/06,22:00,0.73,0.088,ND
2016/11/06,22:10,0.73,0.091,ND
2016/11/06,22:20,0.74,0.098,ND
2016/11/06,22:30,0.74,0.089,ND
2016/11/06,22:40,0.76,0.084,ND
2016/11/06,22:50,0.76,0.083,ND
2016/11/06,23:00,0.78,0.079,ND
2016/11/06,23:10,0.79,0.074,ND
2016/11/06,23:20,0.79,0.073,ND
2016/11/06,23:30,0.78,0.084,ND
2016/11/06,23:40,0.76,0.079,ND
2016/11/06,23:50,0.73,0.088,ND
